Location: Kumla
(59.1265°N, 15.1401°E)
Time: 17:27:48
(UTC+01:00)

A-11 Canister half - Pass Details

Date: 07 December 2023
Orbit: 1512 x 1687 km, 47.2° (Epoch: 25 February)

Event Time Altitude Azimuth Distance (km) Brightness Sun altitude
Rises 06:18:56 0° 279° (W) 4,863 - -15.7°
Reaches altitude 10° 06:23:13 10° 264° (W) 3,900 - -15.2°
Exits shadow 06:24:17 12° 258° (WSW) 3,711 10.5 -15.1°
Maximum altitude 06:29:31 19° 224° (SW) 3,254 10.5 -14.5°
Drops below altitude 10° 06:35:53 10° 184° (S) 3,943 11.4 -13.7°
Sets 06:40:17 0° 168° (SSE) 4,934 12.2 -13.2°
